Погода в Захле

Ливан     33°50′44″N   35°54′06″E
темп.,
°C
ветер,
м/с
пор.,
м/с
влажн.,
%
обл.,
%
осадки,
мм/ч
давл.,
гПа
погр.,
м
15 мая, сб
сб1500:00+16юз11400 0.0 101512
03:00+14юз11370 0.0 101411
06:00+14ююз11410 0.0 101411
09:00+22зюз11240 0.0 1013494
12:00+27юз55170 0.0 10111810
15:00+27зюз65180 0.0 10101811
18:00+24з44220 0.0 1010796
21:00+17юз23360 0.0 101216
16 мая, вс
вс1600:00+14юз33450 0.0 101222
03:00+13юз22274 0.0 101113
06:00+13ююз33230 0.0 101118
09:00+21юз23120 0.0 1011481
12:00+25з55100 0.0 10101658
15:00+25з66155 0.0 10091495
18:00+22з4520100 0.0 1009890
21:00+18з2230100 0.0 101020
17 мая, пн
пн1700:00+17юз12324 0.0 101012
03:00+15ююз33360 0.0 100915
06:00+15ююз33408 0.0 101024
09:00+20юз48291 0.0 10111144
12:00+24зюз792378 0.0 10111663
15:00+24з68185 0.0 10101518
18:00+21з34190 0.0 1010833
21:00+15з22380 0.0 101312
18 мая, вт
вт1800:00+14юз22403 0.0 101315
03:00+12с01390 0.0 101311
06:00+13всв22280 0.0 101412
09:00+21в01160 0.0 1014530
12:00+26юз11130 0.0 10131483
15:00+28зюз43130 0.0 10111867
18:00+26зюз43270 0.0 10111019
21:00+19ссв22470 0.0 101415
19 мая, ср
ср1900:00+18св22390 0.0 101414
03:00+17всв12320 0.0 101311
06:00+17вюв11350 0.0 101411
09:00+25ю12200 0.0 1013663
12:00+29ю44140 0.0 10121932
15:00+30зюз77160 0.0 10112265
18:00+28з55220 0.0 10111165
21:00+20зюз11390 0.0 101211